Flag for Japan Weather past 2 weeks in Minamisōma, Japan

Now
66 °F

Passing clouds.


Feels Like: 66 °F
Forecast: 51 / 74 °F
Wind: 6 mph from Northwest

Location: Sendai Airport

Current Time: Sep 22, 2014 at 8:17:37 PM

Latest Report: Sep 22, 2014 at 8:00 PM


Visibility: N/A

Pressure: 30.07 "Hg

Humidity: 56%

Dew point: 50 °F

Location of MinamisōmaLocation

Historic Weather in Minamisōma — Graph

°F

Minamisōma temperature yesterday

Maximum temperature yesterday: 73 °F (at 1:00 PM)
Minimum temperature yesterday: 54 °F (at 6:00 AM)
Average temperature yesterday: 67 °F

Past Weeks' High & Low Weather Summary

 TemperatureHumidityPressure
High81 °F (Sep 16, 2:00 PM)100% (Sep 8, 6:00 AM)30.07 "Hg (Sep 8, 6:00 AM)
Low54 °F (Sep 21, 6:00 AM)29% (Sep 18, 2:00 PM)29.68 "Hg (Sep 9, 12:00 PM)
Average69 °F71%29.87 "Hg
* Reported Sep 7 7:00 PM — Sep 22 7:00 PM, Minamisōma, Weather by CustomWeather, © 2014

Note: Actual official high and low records may vary slightly from our data, if they occured in-between our weather recording intervals... More about our weather records

Advertising

Minamisōma weather history for previous 24 hours

 ConditionsComfort  
Time TempWeatherWind HumidityBarometerVisibility
7:00 PM
Sep 22
68 °FPassing clouds.9 mph49%30.04 "HgN/A
6:00 PM66 °FPassing clouds.7 mph52%30.01 "HgN/A
5:00 PM72 °FPassing clouds.8 mph41%30.01 "HgN/A
4:00 PM75 °FPassing clouds.15 mph31%30.01 "HgN/A
3:00 PM75 °FPassing clouds.17 mph36%29.98 "HgN/A
2:00 PM72 °FScattered clouds.3 mph53%29.98 "HgN/A
1:00 PM72 °FScattered clouds.6 mph57%30.01 "HgN/A
12:00 PM72 °FScattered clouds.7 mph50%30.01 "HgN/A
11:00 AM72 °FScattered clouds.10 mph57%30.04 "HgN/A
10:00 AM72 °FPassing clouds.10 mph44%30.04 "HgN/A
9:00 AM70 °FPassing clouds.5 mph57%30.07 "HgN/A
8:00 AM64 °FPassing clouds.1 mph73%30.07 "HgN/A
7:00 AM61 °FPassing clouds.2 mph83%30.07 "HgN/A
6:00 AM57 °FPassing clouds.3 mph88%30.07 "HgN/A
9:00 PM
Sep 21
66 °FPartly cloudy.3 mph73%30.04 "HgN/A
8:00 PM63 °FPassing clouds.3 mph77%30.04 "HgN/A
Weather by CustomWeather, © 2014

See weather overviewHow to use our weather pages